Location: Kitchener
(43.4500°N, 80.5000°W)
Time: 13:20:33
(UTC-05:00)

Tiangong 1 - Visible Passes

Search period start: 22 November 2017 00:00
Search period end: 02 December 2017 00:00
Orbit: 284 x 308 km, 42.8° (Epoch: 22 November)

Date Brightness Start Highest point End Pass type
(mag) Time Alt. Az. Time Alt. Az. Time Alt. Az.
25 Nov 3.1 17:49:20 10° S 17:50:38 13° SSE 17:51:46 11° ESE visible
26 Nov 2.3 17:54:39 10° SSW 17:56:46 22° SSE 17:57:51 17° ESE visible
27 Nov 1.6 18:00:24 10° SW 18:02:50 35° SSE 18:03:45 25° ESE visible
28 Nov 0.9 18:06:16 10° WSW 18:08:48 54° SSE 18:09:30 37° ESE visible
29 Nov 0.6 18:12:06 10° WSW 18:14:40 71° S 18:15:06 54° ESE visible
30 Nov 0.4 18:17:51 10° W 18:20:26 78° S 18:20:36 72° SE visible
01 Dec 0.6 18:23:29 10° W 18:25:59 71° SSW 18:25:59 71° SSW visible
